SCP
2 2 2 1 1 0 0 0 1 1 1 1 1 0 0 0 1 1 1 0 0 1 2 2 3 3 2 2 2 2 3 4 3 3 3 3 2 2 2 2 1 1 1 1 1 1 1 1 1
2 2 1 1 1 0 0 0 1 1 1 1 1 1 1 1 1 1 0 0 1 1 2 2 3 2 2 2 2 2 3 4 3 3 3 2 2 2 2 1 1 1 1 1 1 1 1 1 1
2 2 1 1 0 0 0 0 1 1 1 1 1 1 1 1 1 0 0 0 1 2 2 3 3 2 2 2 2 2 2 2 2 2 2 2 2 1 1 1 1 1 1 1 1 1 1 1 1
2 2 1 0 0 0 0 0 1 1 1 1 1 1 1 1 1 0 0 0 1 2 3 3 3 3 2 2 2 2 2 1 2 2 2 2 1 1 1 1 1 1 1 1 1 1 1 1 1
2 1 1 1 0 0 0 0 1 1 1 0 1 1 1 1 1 1 1 1 1 2 3 3 3 3 2 2 2 2 1 1 1 1 1 1 1 1 1 1 1 1 1 1 0 1 1 1 1
1 1 1 0 0 0 0 0 1 1 0 0 0 1 1 1 1 1 1 1 1 2 3 3 3 3 3 2 2 2 1 1 1 1 1 1 1 1 1 1 1 1 1 0 0 1 1 1 1
1 1 0 0 0 0 0 0 0 0 0 0 0 1 1 2 2 2 2 2 2 2 3 3 3 3 2 2 2 2 1 1 1 1 1 1 1 1 1 1 1 1 1 1 1 1 1 1 1
1 1 0 0 0 0 0 0 0 0 0 0 0 1 1 2 2 2 2 2 2 2 3 3 3 2 2 2 2 2 2 1 1 1 1 1 1 1 1 1 1 1 1 1 1 1 1 1 1
1 0 0 0 0 0 0 0 0 0 0 0 0 1 1 2 2 3 3 3 2 2 3 3 3 2 2 2 2 2 1 1 1 1 1 1 1 1 1 1 1 1 1 1 1 1 1 0 0
1 0 0 0 0 0 0 0 0 0 0 0 1 1 1 2 2 3 2 2 2 2 3 3 3 2 1 1 1 1 1 1 1 1 1 1 1 1 1 1 1 1 1 1 1 0 0 0 0
1 0 0 0 0 0 0 0 0 0 0 0 1 1 2 2 2 2 2 2 2 2 3 3 2 2 1 1 1 1 1 1 1 1 2 2 1 1 1 1 1 1 1 1 1 0 0 0 0
1 1 0 0 0 0 0 0 0 0 0 0 1 1 2 2 2 2 1 1 1 2 2 2 2 2 1 1 1 1 1 1 1 2 2 2 2 1 1 1 1 1 1 1 0 0 0 0 0
1 1 1 0 0 0 0 0 0 0 0 0 1 2 2 2 2 1 1 1 1 2 2 2 2 2 1 1 1 1 1 1 2 2 2 2 2 1 1 1 1 1 1 0 0 0 0 0 0
1 1 1 0 0 0 0 0 0 0 0 0 1 1 2 2 1 1 1 1 1 1 2 2 2 1 1 1 1 1 1 1 1 2 2 2 1 1 1 1 1 1 0 0 0 0 0 0 0
1 1 0 0 0 0 0 0 0 0 0 0 1 1 1 1 1 1 1 1 1 1 2 2 2 1 1 1 1 1 1 1 1 1 1 1 1 1 1 1 1 0 0 0 0 0 0 0 0
0 0 0 0 0 0 0 0 0 0 0 0 1 1 1 1 1 1 1 1 1 1 1 2 2 1 1 1 1 1 1 1 1 1 1 1 1 1 1 1 1 0 0 0 0 0 0 0 0
0 0 0 0 0 0 0 0 0 0 0 0 0 1 1 1 1 1 1 1 1 1 1 1 2 1 1 1 1 1 1 1 1 1 1 1 1 1 1 1 1 0 0 0 0 0 0 0 0
0 0 0 0 0 0 0 0 0 0 0 0 0 1 1 1 1 1 1 1 1 1 1 1 1 1 1 1 2 2 2 2 2 1 1 1 1 1 1 1 1 1 0 0 0 0 0 0 0
0 0 0 0 0 0 0 0 0 0 0 0 0 1 1 1 1 1 1 1 1 1 1 1 1 1 1 1 2 2 2 2 2 1 1 1 1 1 1 1 1 1 1 0 0 0 0 0 0
0 0 0 0 0 0 0 0 0 0 0 0 0 0 1 1 1 1 1 1 1 1 1 1 1 1 1 1 1 1 2 2 2 2 1 1 1 0 1 1 1 1 1 1 1 1 1 0 0
0 0 0 0 0 0 0 0 0 0 0 0 0 0 1 1 1 1 1 1 1 1 1 1 1 1 1 1 1 1 2 2 2 2 1 1 1 0 0 0 1 1 1 1 1 1 1 0 0
0 0 0 0 0 0 0 0 0 0 0 0 0 0 1 1 1 1 1 1 1 1 1 1 1 1 1 1 1 1 1 2 2 2 2 1 1 1 0 0 0 1 1 1 1 1 1 0 0
0 0 0 0 0 0 0 0 0 0 0 0 0 0 1 1 1 1 1 1 1 1 2 2 2 2 1 1 1 1 1 1 1 1 1 1 1 1 0 0 1 1 1 1 1 1 0 0 0
0 0 0 0 0 0 0 0 0 0 0 0 0 0 0 1 1 1 1 1 1 2 2 2 2 2 2 2 1 1 1 1 1 1 1 1 1 1 1 1 1 1 1 1 1 1 0 0 0
0 0 0 0 0 0 0 0 0 0 0 0 0 0 0 0 0 1 1 1 1 2 2 2 2 2 2 2 2 1 1 1 2 2 2 2 1 1 1 1 1 1 1 1 1 1 0 0 1
0 0 0 0 0 0 0 0 0 0 0 0 0 0 0 0 0 0 1 1 1 1 2 2 2 2 2 2 2 2 2 2 2 2 2 1 1 1 1 1 1 1 1 1 1 1 0 0 1
0 0 0 0 0 0 0 0 0 0 0 0 0 0 0 0 1 1 1 1 1 1 2 2 2 2 2 2 2 2 2 2 1 1 1 1 1 1 1 1 1 1 1 1 1 1 1 1 1
0 0 0 0 0 0 0 0 0 0 0 0 0 0 0 0 1 1 1 1 1 1 2 2 2 2 2 2 2 2 1 1 1 1 1 1 1 1 1 1 1 1 1 1 1 1 1 1 1
0 0 0 0 0 0 0 0 0 0 0 0 0 0 0 0 0 1 1 1 1 1 2 2 2 2 2 2 2 2 1 1 1 1 1 1 1 0 1 1 1 1 1 1 1 1 1 1 1
0 0 0 0 0 0 0 0 0 0 0 0 0 0 0 0 0 0 1 1 0 1 1 2 2 2 2 2 2 2 1 1 0 0 1 1 1 0 0 1 1 1 1 1 1 1 1 1 1
Wind_Speed
2 1 2 2 1 4 8 6 5 5 5 6 6 5 6 7 7 7 4 3 4 4 5 5 6 6 7 7 7 6 6 7 7 8 8 8 8 9 9 9 9 9 9 9 10 10 11 11 12
1 1 2 1 1 6 8 6 7 7 6 4 5 5 7 8 7 6 4 3 3 4 5 6 7 6 7 7 8 7 7 8 8 8 8 8 8 9 8 9 9 9 9 9 10 10 10 10 11
0 1 1 1 4 6 8 6 7 7 5 2 4 5 6 6 5 5 4 3 4 5 5 8 6 7 8 8 9 10 10 9 9 9 9 9 9 9 9 9 9 9 9 9 10 10 10 10 11
1 1 1 4 10 8 7 6 6 6 5 3 4 7 7 6 4 5 5 4 5 5 6 8 6 7 8 8 9 10 10 10 10 10 10 10 10 10 10 9 9 9 10 10 10 10 10 10 10
0 1 4 7 9 7 6 5 4 5 5 5 5 7 8 6 5 6 5 4 4 5 6 7 7 7 8 8 9 10 10 10 10 11 11 11 10 11 11 10 10 10 10 9 10 10 9 10 10
1 1 5 7 8 7 6 5 5 7 7 6 5 7 7 5 5 5 5 4 5 5 5 7 8 7 8 8 9 9 10 10 10 11 11 11 11 11 12 11 10 10 10 10 10 9 9 9 10
2 3 5 8 8 7 5 4 4 5 6 5 3 5 6 5 5 4 4 4 4 4 5 5 6 7 7 8 9 9 9 10 10 10 10 10 10 11 11 12 11 10 10 10 10 10 10 10 10
1 3 7 6 7 6 5 4 3 3 5 4 1 3 5 6 5 5 4 4 4 4 4 5 5 5 5 7 8 8 8 9 9 9 9 8 8 9 9 10 11 11 11 11 11 11 11 11 10
1 3 5 5 5 6 5 4 4 2 5 4 3 5 5 8 6 5 5 4 4 4 3 4 4 5 5 5 6 6 7 7 6 7 6 4 5 6 7 11 10 10 10 11 11 11 10 8 9
1 3 6 4 4 6 5 3 3 4 4 4 5 6 6 8 7 6 5 4 4 4 4 3 4 4 5 4 4 3 4 4 4 5 5 4 5 5 6 9 9 9 9 9 9 8 6 3 5
3 5 5 4 4 4 4 3 2 3 3 2 3 6 8 7 6 5 4 4 4 4 4 3 3 4 4 3 3 2 2 3 3 4 5 4 4 4 4 4 4 5 5 6 6 4 5 6 5
5 5 4 4 4 3 3 3 3 2 2 2 3 6 8 7 6 4 4 3 3 3 3 3 2 3 3 3 3 2 2 2 2 3 5 4 3 3 4 3 4 3 3 4 4 4 6 6 6
5 5 4 4 4 3 3 3 2 1 1 3 5 7 7 6 5 4 3 3 3 3 3 3 2 2 3 3 2 2 2 3 3 2 3 4 3 3 4 4 3 4 3 4 4 5 6 6 6
5 5 4 4 4 3 2 2 2 2 2 4 6 6 6 6 5 4 3 3 3 3 3 3 2 2 3 3 2 3 3 3 3 3 3 4 3 3 3 3 3 3 3 3 3 4 4 4 5
5 5 4 3 2 2 3 3 2 2 3 4 5 5 5 5 5 4 3 3 2 2 3 3 2 3 3 3 3 3 2 3 3 3 3 4 3 3 3 3 3 3 3 3 3 4 3 4 4
4 4 3 2 1 1 4 2 2 2 4 4 4 5 5 5 5 4 3 2 2 2 3 3 3 3 3 3 3 2 2 2 2 3 2 3 3 2 2 2 2 2 2 2 2 2 2 3 3
4 3 3 2 1 2 3 2 2 2 4 5 5 5 5 5 4 3 3 3 3 2 3 4 3 3 3 3 3 2 2 2 2 2 2 1 2 2 2 1 1 2 1 1 2 2 1 2 3
3 2 1 1 1 3 4 4 2 3 5 5 5 5 5 5 4 4 4 3 3 3 3 3 4 3 4 2 2 2 2 1 1 1 1 1 1 1 2 1 1 1 1 1 1 2 1 2 1
2 2 2 1 1 4 4 4 4 3 5 6 6 6 5 4 4 4 4 4 4 3 3 4 4 4 3 2 2 2 2 1 1 1 1 1 1 1 2 0 1 0 1 1 1 1 1 1 1
4 3 3 2 1 4 4 5 3 2 4 5 5 6 5 5 4 4 4 4 4 4 4 4 4 3 3 2 1 1 1 1 1 1 1 1 1 1 1 1 1 1 1 1 1 1 0 1 0
4 3 2 3 3 4 5 4 3 3 3 3 4 4 4 4 4 5 4 4 4 4 4 3 3 3 3 3 1 1 1 1 2 1 1 1 0 1 1 1 1 1 1 0 0 1 1 1 0
3 2 3 4 6 3 4 4 1 1 2 3 3 4 4 4 4 4 4 4 4 4 3 3 3 3 3 3 2 3 2 1 1 1 1 1 1 1 1 1 1 1 1 1 1 1 1 2 1
2 1 3 5 6 6 5 6 1 2 2 1 1 2 3 4 4 4 5 4 4 3 3 3 3 3 3 3 3 3 3 2 1 1 1 1 1 1 1 1 1 1 1 1 1 1 2 2 2
2 3 4 5 6 6 3 6 2 1 1 1 0 1 2 3 4 4 4 4 3 3 3 3 3 3 3 3 4 4 3 2 1 1 1 1 1 1 1 2 2 2 2 2 2 2 2 2 2
5 5 4 4 5 3 1 5 2 3 2 3 2 2 1 1 2 3 4 4 3 4 4 4 4 3 3 3 3 3 4 3 3 2 2 2 1 1 2 2 2 2 2 2 2 2 2 3 3
4 6 5 4 4 2 3 5 1 2 2 2 1 1 1 1 1 2 3 3 3 3 3 4 4 3 3 2 2 3 3 2 2 2 2 2 2 2 2 2 2 2 3 2 2 2 3 3 3
4 4 4 6 6 6 4 3 2 1 0 1 1 1 2 2 1 0 1 2 3 3 3 3 4 3 3 3 2 2 3 2 2 3 2 2 2 2 3 3 3 3 3 3 3 3 3 3 3
2 2 4 5 5 6 5 5 3 2 1 1 0 1 2 2 1 1 1 1 2 2 2 3 3 3 3 2 2 2 2 3 3 3 3 2 2 2 3 3 3 3 3 3 3 3 3 3 3
4 4 4 4 5 6 5 2 2 1 1 2 1 1 1 2 1 1 1 1 1 2 2 3 3 3 2 2 2 2 2 3 3 3 3 3 3 3 3 3 3 3 3 3 3 3 3 4 4
4 4 5 5 6 6 6 2 3 1 1 1 2 1 1 1 1 2 1 2 1 1 2 2 3 3 3 3 3 3 3 3 3 3 4 4 4 3 3 3 4 4 4 4 4 4 4 4 5
Wind_Direction
205 245 252 244 174 95 83 78 79 85 71 58 58 62 64 47 30 59 69 58 49 64 66 79 57 49 54 59 59 62 74 79 77 77 74 75 75 75 74 71 67 67 65 65 66 67 67 66 67
329 287 248 278 127 109 91 88 86 73 83 91 76 71 74 67 54 80 92 71 67 69 67 64 59 53 56 58 56 61 78 81 77 78 74 73 72 74 74 72 69 66 65 67 67 69 67 66 67
65 310 349 61 80 84 101 100 95 93 92 87 86 63 55 66 69 83 84 98 89 76 70 72 59 61 61 60 61 66 75 76 76 76 75 74 73 73 72 72 70 67 65 65 66 69 67 67 68
255 169 104 97 92 77 90 104 112 114 98 77 95 90 81 61 66 84 102 106 94 85 79 78 63 65 65 65 71 72 73 73 73 74 75 75 73 71 72 72 70 68 67 65 63 65 66 68 68
326 87 118 107 95 92 88 95 115 105 96 89 87 93 92 78 83 100 109 100 91 85 80 84 71 67 69 71 74 75 75 73 72 73 74 76 76 72 70 71 71 70 68 66 66 63 65 68 71
112 138 128 114 106 102 100 106 109 98 98 98 96 98 91 95 102 103 105 99 90 84 81 90 95 78 70 71 72 74 75 74 74 75 74 73 74 71 68 69 70 70 70 68 66 65 67 70 70
89 101 111 118 119 113 100 106 106 100 102 93 95 99 111 114 105 113 112 104 94 86 84 84 95 103 97 81 74 76 76 77 76 75 75 74 74 73 70 67 64 66 67 66 64 63 66 65 65
55 123 123 125 128 113 112 115 94 91 94 95 107 90 112 131 134 131 118 107 98 90 83 85 87 89 98 99 85 78 77 77 79 77 75 79 87 84 79 74 65 62 63 63 62 63 65 64 65
184 139 125 124 131 117 124 127 111 103 115 114 86 65 93 128 145 141 129 117 101 93 88 90 89 85 84 86 98 100 99 91 103 99 94 93 81 79 82 68 67 65 65 63 62 64 66 73 79
115 112 100 101 116 122 125 113 124 145 134 122 114 105 120 141 150 144 136 123 113 106 99 97 96 92 92 91 99 90 92 96 88 86 90 78 73 65 70 83 73 70 71 74 68 67 79 63 76
87 90 101 112 114 125 128 116 123 145 129 126 135 137 144 150 148 144 138 122 113 111 106 99 103 103 100 104 100 93 89 90 86 85 89 82 80 81 75 79 87 81 79 71 79 78 56 57 57
102 90 98 111 120 132 129 131 130 95 55 70 127 141 151 158 157 158 148 130 129 121 117 110 106 110 107 106 104 109 107 102 91 86 89 86 77 72 72 74 68 65 62 58 54 55 59 57 61
109 102 98 107 118 125 136 141 129 97 88 123 135 149 156 162 161 161 154 140 136 133 135 126 130 115 115 101 104 115 104 95 94 83 85 87 83 76 73 71 67 64 63 66 54 54 57 57 57
104 113 114 122 128 142 152 150 162 129 131 141 150 158 163 164 169 162 161 160 151 144 132 127 146 138 133 120 123 107 105 108 98 89 80 84 83 79 79 76 64 59 57 56 60 61 55 58 54
134 131 127 126 149 158 199 184 182 144 157 157 163 162 165 174 176 182 172 170 165 156 145 132 144 150 143 126 110 101 103 106 99 89 75 80 72 75 77 70 71 61 60 60 57 60 54 60 61
167 171 149 114 156 180 231 205 130 154 189 186 180 168 171 177 189 186 183 189 176 172 150 140 148 152 145 136 127 113 110 101 97 88 68 75 81 77 71 67 69 68 69 60 63 52 53 63 55
186 169 137 131 173 216 235 252 150 182 206 207 198 189 181 178 184 184 192 193 179 177 163 151 154 155 144 141 138 127 118 104 90 84 68 52 68 71 78 63 64 73 66 63 71 65 47 59 59
174 172 180 185 163 242 247 255 236 210 221 224 208 199 190 193 186 182 192 192 178 176 172 158 156 165 150 153 152 140 135 123 103 96 83 51 46 75 87 92 94 95 84 65 89 93 72 57 54
209 217 237 274 288 269 267 270 265 237 224 228 219 207 202 200 187 177 185 185 182 180 184 172 173 170 162 165 178 178 171 175 148 124 100 105 87 80 93 96 97 101 83 49 71 86 102 88 65
207 221 234 242 273 274 283 281 274 248 228 231 230 216 208 201 188 174 184 187 192 184 192 185 183 175 170 179 192 196 189 200 137 142 135 126 138 122 111 165 147 128 108 104 84 89 310 90 59
218 242 264 283 283 241 269 253 216 185 200 206 227 234 218 209 199 180 186 189 189 190 186 187 183 175 175 177 180 175 164 199 185 184 170 180 172 190 209 225 231 189 205 166 186 195 237 244 209
243 286 267 259 262 261 268 279 228 208 199 195 208 224 220 212 207 194 188 188 188 191 188 188 178 173 177 176 192 203 214 226 240 226 179 192 188 206 237 241 254 236 237 205 215 217 236 243 231
305 303 255 256 264 262 245 261 213 184 215 207 198 214 220 215 212 205 198 194 189 186 183 184 183 179 181 193 203 235 245 246 242 248 227 233 205 219 241 258 254 246 238 242 230 223 238 233 251
190 209 210 227 244 246 252 264 247 164 294 310 337 230 210 208 207 207 201 193 184 176 178 183 192 190 192 206 212 228 240 244 241 247 256 242 211 221 231 250 252 253 246 239 238 231 231 245 245
227 250 240 223 224 237 147 259 261 48 10 332 333 343 346 204 197 191 195 193 186 178 179 184 188 191 193 211 223 231 239 244 242 245 246 259 240 219 228 233 251 253 253 245 234 232 237 233 232
231 259 271 275 272 265 225 243 100 52 4 336 340 24 47 75 190 190 191 195 192 186 188 189 189 195 195 209 232 240 229 238 246 245 247 246 259 253 236 229 243 250 247 238 228 238 237 241 234
222 236 294 283 276 266 231 221 204 129 93 8 42 62 57 53 75 186 199 195 196 195 198 196 190 192 200 213 227 244 237 233 238 243 246 247 256 270 256 235 237 239 239 240 231 238 234 241 242
302 214 229 251 263 256 244 240 234 189 239 244 18 39 41 50 63 72 96 192 204 203 207 203 198 197 197 216 229 241 251 242 239 241 241 248 252 252 257 243 236 233 234 236 238 246 249 245 241
182 201 238 257 267 274 270 252 56 276 242 251 286 19 30 36 52 60 79 121 160 185 199 199 202 210 219 226 234 237 239 250 240 238 243 251 254 246 251 253 242 237 236 235 230 242 246 250 248
254 240 232 255 254 256 275 282 85 356 316 295 301 354 22 20 50 59 76 98 118 164 213 213 211 219 229 237 238 238 242 247 246 242 244 248 251 252 252 251 244 237 238 240 239 240 244 251 257